Regional Weather Roundup
Issued by NWS

Home | Current Version | Previous Version | Graphics & Text | Print | Product List | Glossary On
Versions: 1 2 3 4 5 6 7 8 9 10 11 12 13 14 15 16 17 18 19 20 21 22 23 24 25 26 27 28 29 30 31 32 33 34 35 36 37 38 39 40 41 42 43 44 45 46 47 48 49 50
632
ASUS44 KJAN 221310
RWRMS

MISSISSIPPI HOURLY WEATHER ROUNDUP
NATIONAL WEATHER SERVICE JACKSON MS
800 AM CDT MON SEP 22 2014

NOTE: "FAIR: INDICATES FEW OR NO CLOUDS BELOW 12,000 FEET WITH NO
SIGNIFICANT WEATHER AND/OR OBSTRUCTIONS TO VISIBILITY.

MSZ001>002-007>008-010>013-018>021-025>028-034>036-221400-
NORTHWEST MISSISSIPPI

CITY           SKY/WX    TMP DP  RH WIND       PRES   REMARKS
CLARKSDALE     FAIR      63  55  77 N12       30.19R
CLEVELAND      FAIR      64  55  74 N8        30.16R
GREENWOOD      SUNNY     64  55  72 N7        30.14R
GREENVILLE     SUNNY     65  53  65 N12       30.15R
GRENADA        FAIR      63  52  67 NE6       30.15R
OLIVE BRANCH   SUNNY     59  55  88 N6        30.19R
OXFORD         FAIR      57  50  77 NE9       30.19R
TUNICA         SUNNY     59  55  88 N7        30.20R
$$

MSZ003>006-009-014>017-022>024-029>033-037>039-221400-
NORTHEAST MISSISSIPPI

CITY           SKY/WX    TMP DP  RH WIND       PRES   REMARKS
COLUMBUS AFB   SUNNY     64  54  70 N9        30.12R
CORINTH        FAIR      57  52  82 CALM      30.17R
GOLDN TRIANGLE SUNNY     64  55  72 N9        30.12R
STARKVILLE     FAIR      63  54  72 N6        30.12S
TUPELO         SUNNY     61  53  75 NE12      30.15R
$$

MSZ040-058-221400-
CENTRAL MISSISSIPPI

CITY           SKY/WX    TMP DP  RH WIND       PRES   REMARKS
JACKSON INTL   MOSUNNY   72  57  59 NE9       30.10R
JACKSON HAWKNS PTSUNNY   72  60  66 VRB5      30.10R
MERIDIAN KEY   MOSUNNY   71  61  70 N10       30.08R
MERIDIAN NAS   MOSUNNY   70  61  73 N7        30.09R
RAYMOND        FAIR      70  64  83 MISG      30.11R
VICKSBURG      PTSUNNY   70  59  68 N10       30.11R
$$

MSZ059>079-221400-
SOUTH MISSISSIPPI

CITY           SKY/WX    TMP DP  RH WIND       PRES   REMARKS
BROOKHAVEN     FAIR      72  64  78 N6        30.09R
COLUMBIA       FAIR      70  68  94 N3        30.05R
HATTIESBURG    SUNNY     71  68  90 CALM      30.06R
MCCOMB         SUNNY     73  67  81 N9        30.06R
NATCHEZ        MOSUNNY   70  66  88 N6        30.09R
PINE BELT      SUNNY    N/A N/A N/A N8        30.07R
$$

MSZ080>082-221400-
COASTAL MISSISSIPPI

CITY           SKY/WX    TMP DP  RH WIND       PRES   REMARKS
BAY ST LOUIS   SUNNY     70  66  88 CALM      30.04R
BILOXI         SUNNY     75  70  85 N3        30.03R
PASCAGOULA     SUNNY     71  69  93 N3        30.04R
GULFPORT       SUNNY     71  69  93 CALM      30.03R
$$



USA.gov is the U.S. government's official web portal to all federal, state and local government web resources and services.